Погода в Новой Деревне

Россия / Калининградская область     54°44′59″N   21°15′42″E
темп.,
°C
ветер,
м/с
пор.,
м/с
влажн.,
%
обл.,
%
осадки,
мм/ч
давл.,
гПа
погр.,
м
15 апреля, чт
чт1523:00+5ссв4967100 0.0 1022838
02:00+3ссв51392100 0.3 1022794
05:00+3ссв51397100 0.9 1021742
08:00+4ссв51285100 1.2 1021865
11:00+8св51169100 0.1 1021985
14:00+10св51160100 0.1 10211183
17:00+10св51058100 0.0 10201438
20:00+7всв2670100 0.0 1021211
16 апреля, пт
пт1623:00+6св41075100 0.0 1021849
02:00+5ссв4884100 0.1 1020813
05:00+5ссв41090100 0.1 1019680
08:00+5ссв41081100 0.1 1018568
11:00+6ссв4882100 0.2 1018614
14:00+6с31093100 1.3 1018737
17:00+7св4991100 0.2 1018672
20:00+7св31092100 0.3 1019470
17 апреля, сб
сб1723:00+8св31092100 0.0 1020366
02:00+7св31092100 0.0 1020406
05:00+7св31094100 0.1 1020380
08:00+8св3996100 0.6 1020471
11:00+11в4780100 0.0 1021937
14:00+12в3774100 0.1 10211218
17:00+12всв5776100 0.7 1021912
20:00+9св3108795 0.8 1022264
18 апреля, вс
вс1823:00+7св3994100 0.0 1022199
02:00+7св3996100 0.0 1022216
05:00+7св3995100 0.0 1022218
08:00+10всв498419 0.0 1022358
11:00+15всв476299 0.0 10221122
14:00+16всв465678 0.1 10211607
17:00+16в4657100 0.0 10211572
20:00+11всв397653 0.1 1022192
19 апреля, пн
пн1923:00+10всв3107474 0.0 1022249
02:00+7всв268140 0.0 1022125
05:00+6всв358449 0.0 1022104
08:00+9всв2673100 0.0 1022184
11:00+13в4759100 0.0 10221053
14:00+14в5651100 0.0 10221900
17:00+12в476456 0.0 1022791
20:00+8св357611 0.0 102188